Akron Canton, OH

5:35 PM EDT on October 21, 2017 (GMT -0400)
Akron-Canton Regional

Weather History for KCAK - December, 2013

Change the Weather History Date:

Saturday, December 21, 2013

  Actual Average Record
Temperature  
Mean Temperature 54 °F 29 °F  
Max Temperature 62 °F 35 °F 65 °F (1967)
Min Temperature 46 °F 22 °F -8 °F (1989)
Degree Days  
Heating Degree Days 11 36  
Month to date heating degree days 702 698  
Since 1 July heating degree days 1952 1957  
Cooling Degree Days 0 0  
Month to date cooling degree days 0 0  
Year to date cooling degree days 829 652  
Growing Degree Days 2 (Base 50)    
Moisture  
Dew Point 52 °F    
Average Humidity 97    
Maximum Humidity 100    
Minimum Humidity 93    
Precipitation  
Precipitation 1.17 in 0.08 in 1.17 in (2013)
Month to date precipitation 2.50 1.96  
Year to date precipitation 41.20 38.74  
Snow  
Snow 0.00 in 0.40 in - ()
Month to date snowfall 9.8 6.6  
Since 1 July snowfall 20.5 10.0  
Snow Depth 0.00 in    
Sea Level Pressure  
Sea Level Pressure 29.75 in    
Wind  
Wind Speed 12 mph (SSW)    
Max Wind Speed 21 mph    
Max Gust Speed 21 mph    
Visibility 3 miles    
Events Rain    
T = Trace of Precipitation, MM = Missing Value Source: NWS Daily Summary

Daily Weather History Graph

Daily Weather History Graph

Search for Another Location

Airport or City:

Trip Planner

Search our weather history database for the weather conditions in past years. The results will help you decide how hot, cold, wet, or windy it might be!

Date:

Astronomy

Dec. 21, 2013 Rise Set
Actual Time 7:47 AM EST 5:01 PM EST
Civil Twilight 7:15 AM EST 5:32 PM EST
Nautical Twilight 6:41 AM EST 6:06 PM EST
Astronomical Twilight 6:07 AM EST 6:40 PM EST
Moon 9:17 PM EST 10:11 AM EST
Length of Visible Light 10h 16m
Length of Day
9h 13m
Waning Gibbous, 84% of the Moon is Illuminated
Dec 21
Waning Gibbous
Dec 25
Last Quarter
Jan 1
New
Jan 7
First Quarter
Jan 15
Full

Hourly Weather History & Observations

Time (EST) Temp. Windchill Dew Point Humidity Pressure Visibility Wind Dir Wind Speed Gust Speed Precip Events Conditions
12:51 AM 54.3 °F - 52.7 °F 94% 29.84 in 2.0 mi SSW 11.5 mph - 0.04 in Rain Rain
1:51 AM 54.3 °F - 53.1 °F 95% 29.83 in 4.0 mi SSW 12.7 mph - 0.03 in Rain Light Rain
2:31 AM 55.4 °F - 55.4 °F 100% 29.81 in 3.0 mi SSW 12.7 mph - 0.05 in Rain Light Rain
2:51 AM 55.0 °F - 54.7 °F 99% 29.83 in 3.0 mi SSW 20.7 mph - 0.14 in Rain Rain
3:51 AM 55.4 °F - 54.5 °F 97% 29.82 in 3.0 mi SSW 12.7 mph - 0.08 in Rain Light Rain
4:51 AM 55.4 °F - 54.5 °F 97% 29.81 in 5.0 mi SSW 12.7 mph - 0.04 in Rain Light Rain
5:51 AM 55.4 °F - 54.5 °F 97% 29.82 in 4.0 mi SSW 12.7 mph - 0.05 in Rain Light Rain
6:21 AM 55.4 °F - 55.4 °F 100% 29.80 in 4.0 mi SSW 12.7 mph - 0.02 in Rain Light Rain
6:51 AM 55.4 °F - 54.5 °F 97% 29.81 in 4.0 mi SSW 13.8 mph - 0.04 in Rain Light Rain
7:51 AM 55.4 °F - 54.5 °F 97% 29.80 in 6.0 mi SSW 13.8 mph - 0.03 in Rain Light Rain
8:11 AM 55.4 °F - 55.4 °F 100% 29.80 in 2.0 mi SSW 15.0 mph - 0.03 in Rain Rain
8:51 AM 55.0 °F - 55.0 °F 100% 29.79 in 2.0 mi SSW 17.3 mph - 0.10 in Rain Light Rain
9:09 AM 55.4 °F - 53.6 °F 94% 29.79 in 3.0 mi SSW 17.3 mph - N/A Rain Light Rain
9:51 AM 55.0 °F - 54.0 °F 96% 29.80 in 3.0 mi SSW 17.3 mph - 0.03 in Rain Light Rain
10:51 AM 55.0 °F - 55.0 °F 100% 29.80 in 2.0 mi SSW 16.1 mph - 0.03 in Rain Light Rain
11:51 AM 57.0 °F - 55.0 °F 93% 29.77 in 2.0 mi SSW 16.1 mph - N/A Rain Light Rain
12:46 PM 46.4 °F 39.8 °F 44.6 °F 93% 29.78 in 1.0 mi North 16.1 mph - N/A Rain Light Rain
12:51 PM 46.0 °F 39.3 °F 45.0 °F 96% 29.78 in 1.0 mi North 16.1 mph - 0.11 in Rain Light Rain
1:51 PM 46.0 °F 41.0 °F 45.0 °F 96% 29.75 in 1.0 mi NNE 10.4 mph - 0.00 in Rain Light Rain
2:21 PM 46.4 °F 42.4 °F 44.6 °F 93% 29.73 in 2.0 mi NE 8.1 mph - 0.00 in Rain Light Rain
2:51 PM 46.0 °F 44.8 °F 45.0 °F 96% 29.74 in 2.0 mi NE 3.5 mph - 0.03 in Rain Light Rain
3:22 PM 46.4 °F - 44.6 °F 93% 29.73 in 2.0 mi Calm Calm - 0.03 in Rain Light Rain
3:51 PM 51.8 °F - 51.8 °F 100% 29.75 in 2.0 mi Calm Calm - 0.15 in Rain Light Rain
4:09 PM 51.8 °F - 51.8 °F 100% 29.74 in 1.0 mi Calm Calm - 0.15 in Rain Light Rain
4:51 PM 51.8 °F - 51.8 °F 100% 29.73 in 1.0 mi Calm Calm - N/A Rain Light Rain
4:55 PM 51.8 °F - 51.8 °F 100% 29.73 in 2.0 mi South 6.9 mph - N/A Rain Light Rain
5:08 PM 51.8 °F - 51.8 °F 100% 29.73 in 1.0 mi South 6.9 mph - 0.02 in Rain Light Rain
5:22 PM 51.8 °F - 51.8 °F 100% 29.72 in 2.0 mi South 9.2 mph - 0.03 in Rain Light Rain
5:51 PM 51.6 °F - 51.3 °F 99% 29.71 in 2.0 mi SSW 9.2 mph - 0.05 in Rain Light Rain
6:51 PM 51.4 °F - 50.9 °F 98% 29.72 in 7.0 mi South 9.2 mph - 0.08 in   Overcast
7:51 PM 52.0 °F - 51.4 °F 98% 29.74 in 7.0 mi SSW 11.5 mph - 0.00 in   Overcast
8:45 PM 51.8 °F - 51.8 °F 100% 29.70 in 2.5 mi West 4.6 mph - 0.00 in Rain Light Rain
8:51 PM 51.4 °F - 50.9 °F 98% 29.70 in 2.5 mi East 4.6 mph - 0.01 in Rain Light Rain
9:51 PM 52.2 °F - 51.6 °F 98% 29.66 in 2.5 mi South 9.2 mph - 0.01 in Rain Light Rain
10:51 PM 52.5 °F - 52.0 °F 98% 29.59 in 7.0 mi South 13.8 mph - 0.03 in   Overcast
11:33 PM 55.4 °F - 55.4 °F 100% 29.52 in 7.0 mi South 13.8 mph - N/A   Overcast
11:51 PM 62.1 °F - 60.4 °F 94% 29.49 in 8.0 mi South 17.3 mph - N/A   Overcast